Flag for Canada Weather past 2 weeks in Saskatoon, Saskatchewan, Canada

Now
-2 °F

Passing clouds.


Feels Like: -24 °F
Forecast: -12 / 2 °F
Wind: 18 mph from Northwest

Location: Saskatoon Weather Station

Current Time: Mar 3, 2015 at 3:08:58 AM

Latest Report: Mar 3, 2015 at 2:00 AM


Visibility: 15 mi

Pressure: 30.25 "Hg

Humidity: 65%

Dew point: -11 °F

Location of SaskatoonLocation

Historic Weather in Saskatoon — Graph

°F

Saskatoon temperature yesterday

Maximum temperature yesterday: 19 °F (at 1:00 PM)
Minimum temperature yesterday: 1 °F (at 10:00 PM)
Average temperature yesterday: 11 °F

Past Weeks' High & Low Weather Summary

 TemperatureHumidityPressure
High34 °F (Feb 23, 3:00 PM)100% (Feb 19, 7:00 PM)30.88 "Hg (Feb 19, 7:00 PM)
Low-29 °F (Feb 22, 2:00 AM)58% (Feb 21, 6:00 PM)29.84 "Hg (Mar 2, 9:00 AM)
Average3 °F77%30.34 "Hg
* Reported Feb 16 2:00 AM — Mar 3 2:00 AM, Saskatoon, Weather by CustomWeather, © 2015

Note: Actual official high and low records may vary slightly from our data, if they occured in-between our weather recording intervals... More about our weather records

Advertising

Saskatoon weather history for previous 24 hours

 ConditionsComfort  
Time TempWeatherWind HumidityBarometerVisibility
2:00 AM
Tue, Mar 3
-2 °FPassing clouds.18 mph65%30.25 "Hg15 mi
1:00 AM-4 °FPassing clouds.13 mph77%30.22 "Hg15 mi
12:00 AM-4 °FPassing clouds.9 mph71%30.23 "Hg15 mi
11:00 PM
Mon, Mar 2
1 °FPassing clouds.16 mph65%30.22 "Hg15 mi
10:00 PM1 °FPassing clouds.13 mph71%30.21 "Hg15 mi
9:00 PM3 °FPassing clouds.12 mph78%30.20 "Hg15 mi
8:00 PM9 °FLight snow. Mostly cloudy.18 mph78%30.18 "Hg1 mi
7:00 PM10 °FPassing clouds.10 mph61%30.14 "Hg15 mi
6:00 PM9 °FScattered clouds.16 mph66%30.11 "Hg15 mi
5:00 PM14 °FPartly sunny.23 mph67%30.08 "Hg6 mi
4:00 PM16 °FBroken clouds.23 mph67%30.03 "Hg6 mi
3:00 PM18 °FPartly sunny.23 mph73%29.99 "Hg6 mi
2:00 PM18 °FLight snow. Partly sunny.25 mph73%29.96 "Hg1 mi
1:00 PM19 °FLight snow. Mostly cloudy.20 mph79%29.93 "Hg1 mi
12:00 PM14 °FLight snow. Overcast.14 mph85%29.90 "Hg1 mi
11:00 AM14 °FMore clouds than sun.13 mph79%29.86 "Hg15 mi
10:00 AM10 °FMostly cloudy.7 mph79%29.85 "Hg15 mi
9:00 AM10 °FPartly sunny.12 mph72%29.84 "Hg15 mi
8:00 AM9 °FPartly sunny.15 mph78%29.85 "Hg15 mi
7:00 AM10 °FPassing clouds.14 mph72%29.88 "Hg15 mi
6:00 AM10 °FPassing clouds.16 mph72%29.90 "Hg15 mi
5:00 AM10 °FPassing clouds.17 mph72%29.93 "Hg15 mi
4:00 AM10 °FPassing clouds.18 mph72%29.98 "Hg15 mi
3:00 AM10 °FPassing clouds.15 mph72%30.03 "Hg15 mi
Weather by CustomWeather, © 2015

See weather overviewHow to use our weather pages